CAPE
3 6 6 4 4 3 2 1 1 0 0 0 0 0 0 0 0 0 0 0 0 0 0 0 0 0 0 0 0 0 0 0 0 0 0 0 0 0 0 8 0 8 9 4 40
1 1 2 6 6 3 2 1 1 0 0 0 0 0 0 0 0 0 0 0 0 0 0 0 0 0 0 0 0 0 0 0 0 0 0 0 0 0 0 12 0 0 0 15 10
18 5 3 4 2 5 4 4 1 0 0 0 0 0 0 0 0 0 0 0 0 0 0 0 0 0 0 0 0 0 0 0 0 0 0 0 0 0 2 0 0 0 0 0 0
9 5 2 0 3 4 1 1 2 1 0 0 0 0 0 0 0 0 0 0 0 0 0 0 0 0 0 0 0 0 0 0 0 0 0 0 0 0 0 0 0 0 0 0 0
2 6 3 6 3 1 0 0 1 1 0 0 0 0 0 0 0 0 0 0 0 0 0 0 0 0 0 0 0 0 0 0 0 0 0 0 0 0 0 0 0 0 0 0 0
4 2 3 1 0 0 0 0 0 0 0 0 0 0 0 0 0 0 0 0 0 0 0 0 0 0 0 0 0 0 0 0 0 0 0 0 0 0 0 0 0 0 0 0 0
3 3 1 0 0 0 0 0 0 0 0 0 0 0 0 0 0 0 0 0 0 0 0 0 0 0 0 0 0 0 0 0 0 0 0 0 0 0 0 0 0 0 0 0 0
8 5 2 1 0 0 0 0 0 0 0 0 0 0 0 0 0 0 0 0 0 0 0 0 0 0 0 0 0 0 0 0 0 0 0 0 0 0 0 0 0 0 0 0 0
5 6 3 1 0 0 0 0 0 0 0 0 0 0 0 0 0 0 0 0 0 0 0 0 0 0 0 0 0 0 0 0 0 0 0 0 0 0 0 0 0 0 0 0 0
2 4 1 0 0 0 0 0 0 0 0 0 0 0 0 0 0 0 0 0 0 0 0 0 0 0 0 0 0 0 0 0 0 0 0 0 0 0 0 0 0 0 0 0 0
7 2 0 0 0 0 0 0 0 0 0 0 0 0 0 0 0 0 0 0 0 0 0 0 0 0 0 0 0 0 0 0 0 0 0 0 0 0 0 0 0 0 0 0 0
1 0 0 0 0 0 0 0 0 0 0 0 0 0 0 0 0 0 0 0 0 0 0 0 0 0 0 0 0 0 0 0 0 0 0 0 0 0 0 0 0 0 0 0 0
0 0 0 0 0 0 0 0 0 0 0 0 0 0 0 0 0 0 0 0 0 0 0 0 0 0 0 0 0 0 0 0 0 0 0 0 0 0 0 0 0 0 0 0 0
0 0 0 0 0 0 0 0 0 0 0 0 0 0 0 0 0 0 0 0 0 0 0 0 0 0 0 0 0 0 0 0 0 0 0 0 0 0 0 0 0 0 0 0 0
0 0 0 0 0 0 0 0 0 0 0 0 0 0 0 0 0 0 0 0 0 0 0 0 0 0 0 0 0 0 0 0 0 0 0 0 0 0 0 0 0 0 0 0 0
0 0 0 0 0 0 0 0 0 0 0 0 0 0 0 0 0 0 0 0 0 0 0 0 0 0 0 0 0 0 0 0 0 0 0 0 0 0 0 0 0 0 0 0 0
0 0 0 0 0 0 0 0 0 0 0 0 0 0 0 0 0 0 0 0 0 0 0 0 0 0 0 0 0 0 0 0 0 0 0 0 0 0 0 0 0 0 0 0 0
0 0 0 0 0 0 0 0 0 0 0 0 0 0 0 0 0 0 0 0 0 0 0 0 0 0 0 0 0 0 0 0 0 0 0 0 0 0 0 0 0 0 0 0 0
0 0 0 0 0 0 0 0 0 0 0 0 0 0 0 0 0 0 0 0 0 0 0 0 0 0 0 0 0 0 0 0 0 0 0 0 0 0 0 0 0 0 0 0 0
0 0 0 0 0 0 0 0 0 0 0 0 0 0 0 0 0 0 0 0 0 0 0 0 0 0 0 0 0 0 0 0 0 0 0 0 0 0 0 0 0 0 0 0 0
0 0 0 0 1 0 0 0 0 0 0 0 0 0 0 0 0 0 0 0 0 0 0 0 0 0 0 0 0 0 0 0 0 0 0 0 0 0 0 0 0 0 0 0 0
0 0 0 0 0 0 0 0 1 0 0 0 0 0 0 0 0 0 0 0 0 0 0 0 0 0 0 0 0 0 0 0 0 0 0 0 0 0 0 0 0 0 0 0 0
0 0 0 0 0 0 0 0 0 0 0 0 0 0 0 0 0 0 0 0 0 0 0 0 0 0 0 0 0 0 0 0 0 0 0 0 0 0 0 0 0 0 0 0 0
0 0 0 0 0 0 0 0 0 0 0 0 0 0 0 0 0 0 0 0 0 0 0 0 0 0 0 0 0 0 0 0 0 0 0 0 0 0 0 0 0 0 0 0 0
0 0 0 0 0 0 0 0 0 0 0 0 0 0 0 0 0 0 0 0 0 0 0 0 0 0 0 0 0 0 0 0 0 0 0 0 0 0 0 0 0 0 0 0 0
0 0 0 0 0 0 0 0 1 0 0 0 0 0 0 0 0 1 0 0 0 0 0 0 0 0 0 0 0 0 0 0 0 0 0 0 0 0 0 0 0 0 0 0 0
0 0 0 0 0 0 0 0 0 0 0 0 0 0 0 0 0 0 0 0 0 0 0 0 0 0 0 0 0 0 0 0 0 0 0 0 0 0 0 0 0 0 0 0 0
CIN
-1 0 0 0 0 0 0 0 0 0 0 0 0 0 0 0 0 0 0 0 0 0 0 0 0 0 0 0 0 0 0 0 0 0 0 0 0 0 -58 -553 0 -682 -457 -187 -456
-3 0 0 0 0 0 0 0 0 0 0 0 0 0 0 0 0 0 0 0 0 0 0 0 0 0 0 0 0 0 0 0 0 0 0 0 0 0 -61 -540 -275 0 -93 -417 -194
0 -1 0 -1 0 0 0 0 0 0 0 0 0 0 0 0 0 0 0 0 0 0 0 0 0 0 0 0 0 0 0 0 0 0 0 0 0 0 -100 0 0 0 0 0 0
-2 0 -1 0 0 0 0 0 0 0 0 0 0 0 0 0 0 0 0 0 0 0 0 0 0 0 0 0 0 0 0 0 0 0 0 0 0 0 0 0 0 0 0 0 0
-1 0 0 0 0 0 0 0 0 0 0 0 0 0 0 0 0 0 0 0 0 0 0 0 0 0 0 0 0 0 0 0 0 0 0 0 0 0 0 0 0 0 0 0 0
0 0 0 0 0 0 0 0 0 0 0 0 0 0 0 0 0 0 0 0 0 0 0 0 0 0 0 0 0 0 0 0 0 0 0 0 0 0 0 0 0 0 0 0 0
-1 0 0 0 0 0 0 0 0 0 0 0 0 0 0 0 0 0 0 0 0 0 0 0 0 0 0 0 0 0 0 0 0 0 0 0 0 0 0 0 0 0 0 0 0
0 0 0 0 0 0 0 0 0 0 0 0 0 0 0 0 0 0 0 0 0 0 0 0 0 0 0 0 0 0 0 0 0 0 0 0 0 0 0 0 0 0 0 0 0
0 0 0 0 0 0 0 0 0 0 0 0 0 0 0 0 0 0 0 0 0 0 0 0 0 0 0 0 0 0 0 0 0 0 0 0 0 0 0 0 0 0 0 0 0
0 -1 0 0 0 0 0 0 0 0 0 0 0 0 0 0 0 0 0 0 0 0 0 0 0 0 0 0 0 0 0 0 0 0 0 0 0 0 0 0 0 0 0 0 0
-1 0 0 0 0 0 0 0 0 0 0 0 0 0 0 0 0 0 0 0 0 0 0 0 0 0 0 0 0 0 0 0 0 0 0 0 0 0 0 0 0 0 0 0 0
-1 0 0 0 0 0 0 0 0 0 0 0 0 0 0 0 0 0 0 0 0 0 0 0 0 0 0 0 0 0 0 0 0 0 0 0 0 0 0 0 0 0 0 0 0
0 0 0 0 0 0 0 0 0 0 0 0 0 0 0 0 0 0 0 0 0 0 0 0 0 0 0 0 0 0 0 0 0 0 0 0 0 0 0 0 0 0 0 0 0
0 0 0 0 0 0 0 0 0 0 0 0 0 0 0 0 0 0 0 0 0 0 0 0 0 0 0 0 0 0 0 0 0 0 0 0 0 0 0 0 0 0 0 0 0
0 0 0 0 0 0 0 0 0 0 0 0 0 0 0 0 0 0 0 0 0 0 0 0 0 0 0 0 0 0 0 0 0 0 0 0 0 0 0 0 0 0 0 0 0
0 0 0 0 0 0 0 0 0 0 0 0 0 0 0 0 0 0 0 0 0 0 0 0 0 0 0 0 0 0 0 0 0 0 0 0 0 0 0 0 0 0 0 0 0
0 0 0 0 0 0 0 0 0 0 0 0 0 0 0 0 0 0 0 0 0 0 0 0 0 0 0 0 0 0 0 0 0 0 0 0 0 0 0 0 0 0 0 0 0
0 0 0 0 0 0 0 0 0 0 0 0 0 0 0 0 0 0 0 0 0 0 0 0 0 0 0 0 0 0 0 0 0 0 0 0 0 0 0 0 0 0 0 0 0
0 0 0 0 0 0 0 0 0 0 0 0 0 0 0 0 0 0 0 0 0 0 0 0 0 0 0 0 0 0 0 0 0 0 0 0 0 0 0 0 0 0 0 0 0
0 0 0 0 0 0 0 0 0 0 0 0 0 0 0 0 0 0 0 0 0 0 0 0 0 0 0 0 0 0 0 0 0 0 0 0 0 0 0 0 0 0 0 0 0
0 0 0 0 -11 0 0 0 0 0 0 0 0 0 0 0 0 0 0 0 0 0 0 0 0 0 0 0 0 0 0 0 0 0 0 0 0 0 0 0 0 0 0 0 0
0 0 0 0 0 0 0 0 0 0 0 0 0 0 0 0 0 0 0 0 0 0 0 0 0 0 0 0 0 0 0 0 0 0 0 0 0 0 0 0 0 0 0 0 0
0 0 0 0 0 0 0 0 0 0 0 0 0 0 0 0 0 0 0 0 0 0 0 0 0 0 0 0 0 0 0 0 0 0 0 0 0 0 0 0 0 0 0 0 0
0 0 0 0 0 0 0 0 0 0 0 0 0 0 0 0 0 0 0 0 0 0 0 0 0 0 0 0 0 0 0 0 0 0 0 0 0 0 0 0 0 0 0 0 0
0 0 0 0 0 0 0 0 0 0 0 0 0 0 0 0 0 0 0 0 0 0 0 0 0 0 0 0 0 0 0 0 0 0 0 0 0 0 0 0 0 0 0 0 0
0 0 0 0 0 0 0 0 -1 0 0 0 0 -1 0 0 0 0 0 0 0 0 0 0 0 0 0 0 0 0 0 0 0 0 0 0 0 0 0 0 0 0 0 0 0
0 0 0 0 0 0 0 0 0 0 0 0 0 0 0 0 0 0 0 0 0 0 0 0 0 0 0 0 0 0 0 0 0 0 0 0 0 0 0 0 0 0 0 0 0
Wind_Speed
34 34 34 35 35 34 34 34 34 34 33 33 33 33 33 33 33 25 28 23 21 19 20 24 19 19 19 18 17 18 20 20 20 17 15 12 9 8 8 4 8 12 7 4 14
36 36 36 35 35 35 35 35 35 34 34 34 33 33 32 32 29 31 27 25 24 23 22 23 22 20 20 20 18 21 21 23 18 16 13 14 12 9 9 5 6 4 5 7 11
37 37 37 37 36 36 35 36 35 35 34 33 33 33 32 29 28 24 24 25 21 22 21 20 22 20 22 20 22 22 24 23 20 16 12 13 13 13 5 10 10 1 2 5 7
38 38 39 38 37 37 36 35 35 35 34 33 32 31 31 23 28 20 21 15 17 20 21 21 22 22 23 24 23 25 22 21 19 15 13 15 12 11 12 10 6 3 2 3 4
38 39 39 39 39 39 37 37 36 35 34 32 30 29 25 26 27 22 22 16 16 19 20 21 21 24 24 23 22 26 21 19 15 13 12 9 11 10 8 7 6 3 3 3 4
39 40 40 40 40 39 39 38 36 34 34 25 24 24 24 30 20 20 22 20 18 19 20 20 21 22 24 23 22 21 18 15 16 15 15 12 12 15 13 7 6 5 4 5 6
40 40 41 41 41 40 38 37 37 36 19 15 15 18 23 29 19 24 22 19 19 19 21 21 20 21 22 22 17 14 17 17 18 18 17 13 19 16 11 8 7 7 7 7 8
41 41 41 42 41 41 39 37 35 30 19 14 13 16 26 17 21 26 19 20 20 21 21 23 21 22 22 18 18 22 19 24 22 19 19 22 25 18 13 10 9 9 8 8 9
41 42 42 43 42 41 40 37 25 21 18 13 17 18 25 23 20 20 15 18 18 20 21 21 21 23 22 22 22 25 29 27 23 21 20 23 22 18 14 12 10 8 7 7 8
42 43 43 43 42 40 38 28 16 17 16 17 18 21 19 20 20 19 14 17 19 20 22 23 23 28 27 27 29 24 29 26 26 23 22 23 21 16 15 13 12 11 9 8 8
43 43 43 42 41 38 31 20 22 19 18 14 17 19 21 21 17 15 13 13 18 21 28 26 32 34 32 30 31 31 28 28 26 22 24 27 21 19 17 17 15 14 12 11 10
43 43 43 42 39 33 23 21 21 20 25 15 9 11 19 19 21 16 10 15 20 26 25 30 41 33 30 33 34 34 31 28 28 25 26 24 23 22 20 20 18 16 15 13 11
44 44 43 42 35 24 22 22 24 18 24 23 15 15 15 8 13 15 7 13 20 24 27 34 31 29 32 33 36 37 34 29 31 26 23 21 28 27 27 23 21 20 17 14 11
46 44 44 42 21 27 19 26 27 17 28 25 18 17 12 10 16 7 4 12 19 25 25 32 34 31 33 39 34 41 33 29 27 31 38 29 42 33 28 29 27 23 20 16 12
47 46 43 30 24 22 21 29 25 18 30 20 18 13 12 9 13 12 9 13 19 19 21 28 29 35 37 36 30 40 28 26 30 32 33 37 39 36 29 34 30 25 21 18 13
48 45 39 25 22 20 25 29 16 24 27 23 18 17 14 15 16 13 10 13 14 20 24 30 24 27 37 30 29 21 20 22 25 30 42 41 40 41 36 34 30 27 22 18 16
49 42 29 25 25 26 25 17 23 25 23 25 24 22 20 18 18 15 13 14 18 24 32 29 37 32 28 31 25 27 27 32 37 41 47 37 42 46 30 31 31 28 24 21 18
50 32 27 28 27 23 18 18 28 25 26 25 26 31 25 20 23 20 19 21 20 22 25 30 35 31 28 33 33 33 35 37 43 44 45 30 44 44 33 20 24 26 24 22 19
44 27 27 32 26 20 17 25 27 26 29 32 33 29 28 24 24 21 23 24 21 18 27 29 34 24 26 28 30 33 40 35 40 38 43 42 45 39 25 22 21 22 24 25 21
35 26 30 34 24 20 21 26 24 25 31 28 29 27 29 29 28 25 23 22 25 24 20 27 37 26 23 23 30 33 33 36 34 45 50 46 49 46 31 24 19 25 24 23 21
28 25 31 36 20 22 26 26 26 28 30 27 28 31 28 29 28 28 27 22 25 25 22 24 28 27 21 27 29 30 36 36 38 38 50 55 53 38 33 23 21 23 25 25 22
29 26 35 30 24 24 25 28 30 31 30 27 28 29 30 31 31 29 29 25 25 25 24 23 26 37 28 23 27 32 37 38 40 43 47 47 53 22 22 18 20 21 24 24 24
30 26 29 25 27 29 28 28 29 31 31 28 29 29 30 31 34 30 29 25 26 24 23 22 28 35 33 30 28 32 34 39 40 37 47 50 54 33 28 22 26 19 20 21 22
29 30 28 25 26 28 31 31 33 29 24 27 27 26 33 32 31 35 35 29 32 27 28 25 30 32 39 34 26 30 30 37 39 43 46 51 46 34 26 23 22 13 16 19 23
29 27 27 32 32 31 32 29 33 32 28 29 26 29 30 33 37 35 34 40 35 29 27 26 38 36 39 37 34 30 32 36 43 51 45 48 42 36 25 24 20 13 13 16 21
28 29 27 30 29 32 30 30 32 32 31 33 34 36 34 35 36 45 42 38 42 33 31 29 36 37 43 38 35 38 37 30 41 47 50 45 47 32 29 28 28 22 16 17 21
24 24 26 28 28 30 27 31 32 35 30 30 38 42 41 40 39 45 47 48 51 52 44 36 33 35 43 38 37 45 45 39 41 41 44 50 44 31 30 28 28 21 16 18 21
Wind_Direction
338 332 328 328 327 324 322 319 317 313 309 305 304 303 302 300 294 292 281 283 283 288 291 286 294 292 291 282 280 275 269 265 261 253 258 251 246 272 295 317 312 295 291 22 81
343 336 331 324 322 321 319 317 314 312 310 307 303 303 303 303 299 283 281 280 276 279 282 279 280 285 280 278 275 266 267 261 267 261 250 247 249 262 270 293 317 9 25 55 74
341 340 333 325 321 317 313 312 309 309 307 307 306 302 303 306 295 290 295 280 275 275 278 281 279 280 272 274 266 265 263 262 264 261 246 245 252 265 241 270 281 205 41 51 60
338 336 332 328 319 314 310 307 305 306 303 306 306 306 304 308 283 301 306 303 278 275 273 273 272 268 268 265 264 262 265 266 262 257 248 245 254 261 272 267 274 324 0 34 30
335 332 331 326 318 312 306 307 302 300 305 315 311 311 312 295 286 298 300 305 290 277 272 269 266 265 263 265 265 261 264 266 262 250 248 239 251 258 266 269 272 299 341 339 341
335 330 326 323 319 309 304 301 297 293 298 332 330 324 311 288 306 305 297 288 290 279 272 267 267 265 265 265 262 263 260 259 257 248 241 233 250 264 263 267 263 267 287 307 320
333 328 324 320 315 309 300 297 296 294 343 350 353 342 315 290 313 300 295 287 285 280 272 268 267 261 266 260 264 254 254 253 251 249 244 239 254 254 255 257 255 264 277 296 306
328 324 323 319 314 308 301 295 297 323 348 1 7 348 306 329 314 290 297 285 284 277 276 268 267 262 261 264 257 254 255 248 249 245 247 247 246 250 253 248 255 262 275 292 306
327 325 324 319 313 307 304 300 334 349 351 5 345 342 312 324 315 308 294 287 284 281 273 272 263 257 256 250 249 246 247 246 244 248 246 248 247 245 247 249 251 263 277 291 305
328 326 323 320 313 309 304 331 355 352 352 341 336 328 326 320 323 316 302 287 283 281 269 263 260 251 249 243 236 239 250 248 246 245 249 249 249 232 243 247 252 260 269 283 299
327 324 321 318 315 310 330 345 339 338 342 333 330 324 323 326 333 324 315 292 284 274 260 261 251 247 246 247 254 252 249 247 253 253 251 250 243 237 240 248 251 256 262 272 288
326 323 320 318 313 327 348 345 344 338 326 330 301 298 308 318 311 312 330 290 278 266 264 258 251 252 255 250 251 254 246 244 250 255 253 245 244 244 244 247 249 251 259 266 277
325 321 320 318 315 345 346 346 342 344 328 324 323 314 310 299 306 302 311 297 283 271 263 256 260 258 251 250 247 249 246 241 245 248 257 240 252 246 248 251 252 256 261 267 270
325 320 322 323 346 335 340 335 337 345 321 322 327 327 325 316 301 290 286 300 287 275 271 265 259 259 251 248 246 247 252 246 241 241 247 250 253 250 245 248 250 250 254 258 263
327 323 325 340 338 337 335 325 331 341 315 333 333 346 336 314 322 305 285 293 281 281 275 268 265 252 251 251 246 250 252 248 247 247 252 251 255 257 243 247 246 248 249 251 254
328 326 332 350 346 342 331 322 341 319 309 321 327 323 318 302 307 317 296 295 294 282 279 272 276 264 253 257 248 244 243 245 248 249 249 248 252 255 248 240 246 246 243 241 249
328 326 346 349 338 334 330 334 317 307 322 317 313 310 303 299 291 294 287 273 277 275 269 274 263 264 263 250 246 237 229 242 245 246 249 248 252 255 262 248 241 238 236 237 243
329 337 348 349 337 335 337 323 305 313 308 315 312 301 297 296 288 280 282 277 275 279 279 270 265 259 256 250 243 231 230 240 244 244 247 256 253 258 259 261 248 240 233 231 236
336 346 352 344 345 343 330 308 310 313 312 306 302 296 294 292 284 284 274 275 276 267 271 272 269 277 263 252 245 237 239 242 251 256 254 255 258 264 273 257 241 232 225 226 227
341 338 343 340 345 344 321 311 312 320 314 309 298 299 291 288 282 277 277 288 275 271 267 276 267 276 268 257 250 238 237 240 248 247 249 253 254 255 255 253 239 231 221 219 220
345 337 343 333 350 338 317 314 314 318 319 307 298 291 289 288 285 277 276 286 288 286 265 267 269 271 265 252 246 244 237 245 249 250 249 251 255 260 262 249 233 222 213 207 200
344 333 339 338 331 331 323 320 319 315 315 305 300 293 287 285 281 278 273 278 296 286 273 268 270 258 262 266 260 251 246 239 245 246 250 254 249 273 266 244 229 212 198 196 196
341 338 347 349 326 325 324 321 322 317 312 307 295 295 291 282 276 276 275 279 289 289 281 278 263 259 259 263 260 253 249 242 245 253 248 247 245 267 266 260 249 233 214 199 200
342 331 337 347 343 330 324 319 316 320 314 311 305 296 289 280 281 273 273 275 281 282 287 275 264 260 253 260 261 255 253 245 245 247 248 248 250 259 258 252 241 224 207 211 207
343 335 336 326 328 327 323 318 316 313 311 309 297 303 294 280 278 273 275 273 272 280 284 277 262 265 261 259 259 262 255 249 246 245 247 248 251 252 253 243 239 226 208 192 198
339 334 333 327 328 326 325 321 314 312 309 301 293 293 291 282 281 274 276 273 262 269 278 281 265 268 259 259 260 259 256 255 249 248 249 251 250 259 256 252 247 240 218 209 204
339 336 332 325 325 324 322 321 316 313 308 299 296 289 284 282 286 279 273 267 260 261 266 269 267 268 259 262 260 257 250 250 253 253 251 247 250 256 254 250 246 240 212 210 203